星链-34500 (STARLINK-34500)

导读 | 豆包AI

STARLINK-34500是美国SpaceX公司星链星座的一颗低轨通信卫星,于2025年6月25日发射升空,属于星链全球互联网组网计划的组成部分。 星链卫星采用平板设计,搭载霍尔推进器与星间链路技术,旨在为全球偏远地区提供高速宽带服务,但也引发太空安全、轨道拥堵与军事应用争议,是近地轨道大规模卫星组网的典型代表。

基本信息
目录编号:
64613
目录名称:
STARLINK-34500
国际标识:
2025-137V
轨道中心:
EARTH
卫星名称:
星链-34500
卫星全名:
星链-34500 (STARLINK-34500)
卫星状态:
在轨 (已飞行262 天)
发射日期:
2025-06-25 UTC
国别 :
美国 (US)
星等 :
--
轨道信息
数据来源 国际轨道数据
星历时间: 2026-03-14T06:36:06+0800
17小时前
查看轨道信息
半长轴: 6853.239km
偏心率: 0.0000488
轨道倾角: 53.159°
近地点辐角 79.817°
升交点赤经 315.644°
平近点角 280.288°
近地点: 474.767km
远地点: 475.437km
周期: 94.103分钟
每日圈数: 15.30238
详细信息
固有亮度:
5
最大亮度:
2.5
卫星平台:
Starlink V1.0
覆盖范围:
全球
运营商:
太空探索技术公司
运营商所在国:
美国
制造商(研发单位):
太空探索技术公司
制造商所在国:
美国
使用方式:
暂无
卫星简介
Starlink 计划是 SpaceX 推出的全球卫星互联网项目,通过发射低轨道卫星,为全球尤其是偏远地区提供高速、低延迟的互联网服务。自 2019 年起,Starlink 已部署数千颗卫星,旨在缩小全球数字鸿沟,推动互联网普及。该项目还为军事、航空等行业提供通信支持,带来广泛经济效益。
2D轨道图
3D轨道图
轨道高度分析图
轨道倾角分析图
轨道综合分析图
查看轨道综合分析图